Location: Oakley
(37.9974°N, 121.7125°W)
Time: 03:28:16
(UTC+00:00)

Hubble Space Telescope - Pass Details

Date: 27 April 2026
Orbit: 473 x 476 km, 28.5° (Epoch: 11 May)

Event Time Altitude Azimuth Distance (km) Brightness Sun altitude
Rises 03:54:04 0° 241° (WSW) 2,506 4.7 -11.8°
Reaches altitude 10° 03:56:43 10° 223° (SW) 1,630 3.4 -12.3°
Maximum altitude 03:59:24 19° 177° (S) 1,190 2.2 -12.7°
Enters shadow 04:00:30 17° 154° (SSE) 1,276 2.2 -12.9°
